Location: Brusselsch Zeekanaal
(50.8667°N, 4.3667°E)
Time: 00:25:36
(UTC+00:00)

Cosmos 2278 Rocket - Pass Details

Date: 08 November 2025
Orbit: 841 x 843 km, 71.0° (Epoch: 04 December)

Event Time Altitude Azimuth Distance (km) Brightness Sun altitude
Exits shadow 03:29:39 25° 1° (N) 1,631 3.7 -31.1°
Maximum altitude 03:32:08 37° 48° (NE) 1,285 3.5 -30.7°
Drops below altitude 10° 03:37:21 10° 115° (ESE) 2,459 5.2 -29.9°
Sets 03:39:58 0° 124° (SE) 3,391 6.0 -29.5°
